sat.trackr.live / text

‹ back to catalog

STARLINK-35926

NORAD 66642 · 2025-271AB

PAYLOAD ACTIVE UNKNOWN

§ Identity

Operator
Country
US
Launch date
2025-11-23
Launch site
AFWTR
Launch vehicle
Mass (kg)
RCS (m²)

Purposes: comms

External: N2YO · Heavens-Above · Gunter

§ Orbital elements

Epoch: 2026-09-20T10:36:03.609216Z

Period
93.85 min
Inclination
53.1591°
Eccentricity
0.0001291
Mean motion
15.34422304 rev/d
Perigee alt
461.8 km
Apogee alt
463.5 km
Semi-major
6,840.8 km
B*
4.6195e-4
RAAN
313.9428°
Arg perigee
85.1173°
Mean anomaly
274.9977°
Rev number
4,736

§ Raw data

STARLINK-359261 66642U 25271AB  26263.44170844  .00015274  00000+0  46195-3 0  99982 66642  53.1591 313.9428 0001291  85.1173 274.9977 15.34422304 47361

JSON: /api/v1/satellites/66642 · /tle

For live sub-satellite position, see the globe view (requires WebGL).

§ Visibility from observer

Set your observer location to see the next 7 days of passes ≥ 10°. The values pass through the URL so the page stays shareable.

No JS? Fill the form by hand. The geolocation button needs JavaScript.